User: anonymous   Login
Location: Caltech
(34.1382°N, 118.1253°W)
Time: 20:11:37
(UTC-07:00)
Language:

Gurwin Techsat 1B - Orbit

View from above orbital plane
View from above orbital plane
View from above satellite
View from above satellite

Ground track
Ground track

The orbit data is extracted from the following two-line orbital elements,

1 25397U 98043D   15123.82366396  .00000036  00000-0  34279-4 0  9993
2 25397 098.5160 075.6660 0002470 092.5131 327.3684 14.23539914873485
Epoch (UTC): 03 May 2015 19:46:04
Eccentricity: 0.0002470
inclination: 98.5160°
perigee height: 811 km
apogee height: 815 km
right ascension of ascending node: 75.6660°
argument of perigee: 92.5131°
revolutions per day: 14.23539914
mean anomaly at epoch: 327.3684°
orbit number at epoch: 87348

The dashed part of the orbit path shows where the satellite is in the earth's shadow,  

DLR